Terug naar catalogus

STARLINK-11173

ActiefCommunicatieVLEO
NORAD 60192·PAYLOAD·🇺🇸 United States

Gelanceerd Jul 3, 2024 vanaf Cape Canaveral Space Force Station

Loading…

Volgende Passages (komende 24 uur)

TLE

VersSource: CelesTrak SupGP

Epoch: Sep 14, 2026, 22:26 UTC

1 60192C 24124K   26257.93520833 -.00031413  00000+0 -25876-3 0  2577
2 60192  53.1567 308.4834 0001095  87.4980 332.0020 15.69724622    13

Volg STARLINK-11173 in realtime met AllMySat

Download on the App Store